Location: Mauries
(43.6188°N, 0.3322°W)
Time: 18:59:31
(UTC+00:00)

ARIANE 6 FM1 Upper Stage - Pass Details

Date: 14 January 2026
Orbit: 522 x 609 km, 62.0° (Epoch: 11 February)

Event Time Altitude Azimuth Distance (km) Brightness Sun altitude
Exits shadow 06:49:55 - 281° (W) 1,824 4.6 -7.7°
Reaches altitude 10° 06:50:08 10° 278° (W) 1,775 4.6 -7.7°
Maximum altitude 06:52:16 14° 245° (WSW) 1,532 4.5 -7.3°
Drops below altitude 10° 06:54:25 10° 213° (SSW) 1,786 5.1 -7.0°
Sets 06:57:29 0° 188° (S) 2,689 6.4 -6.5°
